• En España
  • Lista de países
  • Para 7 días
  • Temperatura del agua
  • Mapa Satelital
  • El tiempo en el mapa
  • Informadores
  • user-avatar
    Iniciar sesión

    Tiempo cada hora Zavire

    Hoy, 19 Abril, Jueves

    Tiempo Temperatura Precipitaciones Viento Presión Humedad
    00:00 +6°C° 0,3 mm 4 mps 739 mmHg 94%
    01:00 +6°C° 0,3 mm 4 mps 739 mmHg 94%
    02:00 +7°C° 0 mm 3 mps 739 mmHg 93%
    03:00 +7°C° 0,5 mm 3 mps 739 mmHg 94%
    04:00 +6°C° 0,5 mm 4 mps 739 mmHg 94%
    05:00 +5°C° 0,5 mm 4 mps 739 mmHg 94%
    06:00 +5°C° 0,7 mm 4 mps 739 mmHg 94%
    07:00 +5°C° 0,7 mm 4 mps 739 mmHg 93%
    08:00 +5°C° 0,7 mm 4 mps 739 mmHg 93%
    09:00 +6°C° 0,6 mm 4 mps 739 mmHg 92%
    10:00 +6°C° 0,6 mm 4 mps 739 mmHg 91%
    11:00 +6°C° 0,6 mm 4 mps 740 mmHg 91%
    12:00 +7°C° 0,1 mm 4 mps 740 mmHg 88%
    13:00 +8°C° 0,1 mm 4 mps 740 mmHg 85%
    14:00 +10°C° 0,1 mm 4 mps 740 mmHg 82%
    15:00 +10°C° 0 mm 4 mps 740 mmHg 78%
    16:00 +11°C° 0 mm 4 mps 741 mmHg 74%
    17:00 +11°C° 0 mm 4 mps 741 mmHg 69%
    18:00 +10°C° 0 mm 4 mps 741 mmHg 73%
    19:00 +9°C° 0 mm 3 mps 742 mmHg 77%
    20:00 +8°C° 0 mm 3 mps 742 mmHg 80%
    21:00 +7°C° 0 mm 3 mps 742 mmHg 83%
    22:00 +7°C° 0 mm 3 mps 743 mmHg 85%
    23:00 +5°C° 0 mm 3 mps 743 mmHg 88%

    Mañana, 20 Abril, Viernes

    Tiempo Temperatura Precipitaciones Viento Presión Humedad
    00:00 +5°C° 0 mm 3 mps 743 mmHg 90%
    01:00 +4°C° 0 mm 3 mps 744 mmHg 93%
    02:00 +4°C° 0 mm 3 mps 744 mmHg 96%
    03:00 +4°C° 0 mm 3 mps 744 mmHg 95%
    04:00 +4°C° 0 mm 3 mps 744 mmHg 95%
    05:00 +4°C° 0 mm 3 mps 744 mmHg 94%
    06:00 +4°C° 0 mm 3 mps 745 mmHg 92%
    07:00 +5°C° 0 mm 3 mps 745 mmHg 90%
    08:00 +5°C° 0 mm 3 mps 745 mmHg 88%
    09:00 +7°C° 0 mm 3 mps 745 mmHg 81%
    10:00 +9°C° 0 mm 3 mps 745 mmHg 74%
    11:00 +10°C° 0 mm 2 mps 745 mmHg 67%
    12:00 +12°C° 0 mm 2 mps 745 mmHg 64%
    13:00 +12°C° 0 mm 2 mps 745 mmHg 61%
    14:00 +13°C° 0 mm 2 mps 745 mmHg 58%
    15:00 +12°C° 0 mm 2 mps 744 mmHg 59%
    16:00 +12°C° 0 mm 2 mps 744 mmHg 61%
    17:00 +11°C° 0 mm 3 mps 743 mmHg 62%
    18:00 +10°C° 0 mm 2 mps 743 mmHg 69%
    19:00 +9°C° 0 mm 2 mps 742 mmHg 75%
    20:00 +8°C° 0 mm 2 mps 741 mmHg 82%
    21:00 +8°C° 0 mm 3 mps 740 mmHg 81%
    22:00 +8°C° 0 mm 3 mps 739 mmHg 80%
    23:00 +7°C° 0 mm 4 mps 738 mmHg 79%

    Pasado mañana, 21 Abril, Sábado

    Tiempo Temperatura Precipitaciones Viento Presión Humedad
    00:00 +7°C° 0 mm 4 mps 737 mmHg 80%
    01:00 +8°C° 0 mm 4 mps 736 mmHg 82%
    02:00 +8°C° 0 mm 4 mps 735 mmHg 83%
    03:00 +8°C° 0 mm 5 mps 735 mmHg 86%
    04:00 +8°C° 0 mm 5 mps 734 mmHg 88%
    05:00 +8°C° 0 mm 5 mps 733 mmHg 90%
    06:00 +9°C° 0,2 mm 5 mps 732 mmHg 87%
    07:00 +9°C° 0,2 mm 5 mps 731 mmHg 84%
    08:00 +10°C° 0,2 mm 6 mps 730 mmHg 81%
    09:00 +10°C° 0,2 mm 6 mps 729 mmHg 82%
    10:00 +10°C° 0,2 mm 6 mps 728 mmHg 82%
    11:00 +10°C° 0,2 mm 7 mps 727 mmHg 83%
    12:00 +10°C° 0,2 mm 7 mps 727 mmHg 79%
    13:00 +9°C° 0,2 mm 8 mps 727 mmHg 75%
    14:00 +7°C° 0,2 mm 8 mps 727 mmHg 71%
    15:00 +7°C° 0,1 mm 8 mps 728 mmHg 68%
    16:00 +7°C° 0,1 mm 8 mps 728 mmHg 66%
    17:00 +7°C° 0,1 mm 8 mps 729 mmHg 64%
    18:00 +6°C° 0,1 mm 7 mps 729 mmHg 68%
    19:00 +5°C° 0,1 mm 6 mps 730 mmHg 72%
    20:00 +5°C° 0,1 mm 5 mps 730 mmHg 77%
    21:00 +5°C° 0 mm 5 mps 731 mmHg 78%
    22:00 +3°C° 0 mm 5 mps 731 mmHg 80%
    23:00 +3°C° 0 mm 5 mps 731 mmHg 81%

    22 Abril, Domingo

    Tiempo Temperatura Precipitaciones Viento Presión Humedad
    00:00 +3°C° 0 mm 5 mps 732 mmHg 82%
    01:00 +3°C° 0 mm 4 mps 732 mmHg 84%
    02:00 +3°C° 0 mm 4 mps 732 mmHg 85%
    03:00 +1°C° 0 mm 4 mps 733 mmHg 86%
    04:00 +1°C° 0 mm 4 mps 733 mmHg 86%
    05:00 +2°C° 0 mm 3 mps 733 mmHg 87%
    06:00 +2°C° 0,1 mm 3 mps 733 mmHg 83%
    07:00 +3°C° 0,1 mm 3 mps 734 mmHg 78%
    08:00 +4°C° 0,1 mm 3 mps 734 mmHg 74%
    09:00 +4°C° 0,1 mm 3 mps 734 mmHg 71%
    10:00 +5°C° 0,1 mm 3 mps 734 mmHg 68%
    11:00 +7°C° 0,1 mm 3 mps 735 mmHg 65%
    12:00 +7°C° 0,2 mm 3 mps 735 mmHg 66%
    13:00 +7°C° 0,2 mm 3 mps 735 mmHg 66%
    14:00 +7°C° 0,2 mm 3 mps 735 mmHg 66%
    15:00 +7°C° 0,1 mm 3 mps 735 mmHg 66%
    16:00 +7°C° 0,1 mm 3 mps 735 mmHg 66%
    17:00 +7°C° 0,1 mm 3 mps 735 mmHg 66%
    18:00 +6°C° 0 mm 2 mps 736 mmHg 70%
    19:00 +4°C° 0 mm 2 mps 736 mmHg 73%
    20:00 +3°C° 0 mm 2 mps 737 mmHg 77%
    21:00 +2°C° 0 mm 2 mps 737 mmHg 78%
    22:00 +3°C° 0 mm 1 mps 737 mmHg 79%
    23:00 +2°C° 0 mm 1 mps 738 mmHg 79%

    23 Abril, Lunes

    Tiempo Temperatura Precipitaciones Viento Presión Humedad
    00:00 +1°C° 0 mm 1 mps 738 mmHg 79%
    01:00 +1°C° 0 mm 1 mps 738 mmHg 79%
    02:00 0°C° 0 mm 1 mps 739 mmHg 79%
    03:00 0°C° 0 mm 1 mps 739 mmHg 79%
    04:00 0°C° 0 mm 1 mps 739 mmHg 78%
    05:00 0°C° 0 mm 1 mps 739 mmHg 78%
    06:00 +2°C° 0 mm 1 mps 740 mmHg 68%
    07:00 +4°C° 0 mm 1 mps 740 mmHg 59%
    08:00 +5°C° 0 mm 1 mps 740 mmHg 50%
    09:00 +7°C° 0 mm 1 mps 740 mmHg 45%
    10:00 +8°C° 0 mm 1 mps 740 mmHg 40%
    11:00 +9°C° 0 mm 0 mps 740 mmHg 36%
    12:00 +10°C° 0 mm 1 mps 740 mmHg 34%
    13:00 +11°C° 0 mm 1 mps 740 mmHg 33%
    14:00 +11°C° 0 mm 1 mps 740 mmHg 32%
    15:00 +11°C° 0 mm 1 mps 740 mmHg 33%
    16:00 +10°C° 0 mm 1 mps 739 mmHg 34%
    17:00 +9°C° 0 mm 0 mps 739 mmHg 35%
    18:00 +8°C° 0 mm 1 mps 739 mmHg 41%
    19:00 +6°C° 0 mm 1 mps 739 mmHg 47%
    20:00 +4°C° 0 mm 1 mps 739 mmHg 53%
    21:00 +4°C° 0 mm 1 mps 739 mmHg 56%
    22:00 +3°C° 0 mm 1 mps 739 mmHg 60%
    23:00 +1°C° 0 mm 2 mps 739 mmHg 63%

    24 Abril, Martes

    Tiempo Temperatura Precipitaciones Viento Presión Humedad
    00:00 +1°C° 0 mm 2 mps 739 mmHg 65%
    01:00 +1°C° 0 mm 2 mps 738 mmHg 68%
    02:00 -1°C° 0 mm 2 mps 738 mmHg 70%
    03:00 -1°C° 0 mm 2 mps 738 mmHg 72%
    04:00 -1°C° 0 mm 2 mps 738 mmHg 73%
    05:00 +1°C° 0 mm 2 mps 737 mmHg 75%
    06:00 +2°C° 0 mm 2 mps 737 mmHg 69%
    07:00 +3°C° 0 mm 3 mps 737 mmHg 64%
    08:00 +5°C° 0 mm 3 mps 736 mmHg 59%
    09:00 +7°C° 0 mm 4 mps 736 mmHg 56%
    10:00 +8°C° 0 mm 4 mps 736 mmHg 53%
    11:00 +9°C° 0 mm 5 mps 736 mmHg 51%
    12:00 +9°C° 0,1 mm 5 mps 735 mmHg 53%
    13:00 +9°C° 0,1 mm 5 mps 735 mmHg 55%
    14:00 +11°C° 0,1 mm 4 mps 734 mmHg 57%
    15:00 +10°C° 0,3 mm 4 mps 734 mmHg 63%
    16:00 +8°C° 0,3 mm 4 mps 734 mmHg 69%
    17:00 +8°C° 0,3 mm 3 mps 734 mmHg 76%
    18:00 +7°C° 0,6 mm 3 mps 733 mmHg 79%
    19:00 +7°C° 0,6 mm 3 mps 733 mmHg 83%
    20:00 +5°C° 0,6 mm 3 mps 733 mmHg 87%
    21:00 +5°C° 0,7 mm 3 mps 732 mmHg 88%
    22:00 +5°C° 0,7 mm 3 mps 732 mmHg 89%
    23:00 +4°C° 0,7 mm 3 mps 732 mmHg 90%
    Mostrar más